sat.trackr.live / text

‹ back to catalog

STARLINK-36094

NORAD 66851 · 2025-281D

PAYLOAD ACTIVE UNKNOWN

§ Identity

Operator
Country
US
Launch date
2025-12-02
Launch site
AFETR
Launch vehicle
Mass (kg)
RCS (m²)

Purposes: comms

External: N2YO · Heavens-Above · Gunter

§ Orbital elements

Epoch: 2026-05-25T01:00:28.069920Z

Period
94.27 min
Inclination
43.0030°
Eccentricity
0.0001724
Mean motion
15.27587104 rev/d
Perigee alt
481.8 km
Apogee alt
484.2 km
Semi-major
6,861.2 km
B*
5.2480e-4
RAAN
272.1868°
Arg perigee
50.6094°
Mean anomaly
309.4910°
Rev number
2,786

§ Raw data

STARLINK-360941 66851U 25281D   26145.04199155  .00014210  00000+0  52480-3 0  99952 66851  43.0030 272.1868 0001724  50.6094 309.4910 15.27587104 27869

JSON: /api/v1/satellites/66851 · /tle

For live sub-satellite position, see the globe view (requires WebGL).

§ Visibility from observer

Set your observer location to see the next 7 days of passes ≥ 10°. The values pass through the URL so the page stays shareable.

No JS? Fill the form by hand. The geolocation button needs JavaScript.